PDT,Max TemperatureF,Mean TemperatureF,Min TemperatureF,Max Dew PointF,MeanDew PointF,Min DewpointF,Max Humidity, Mean Humidity, Min Humidity, Max Sea Level PressureIn, Mean Sea Level PressureIn, Min Sea Level PressureIn, Max VisibilityMiles, Mean VisibilityMiles, Min VisibilityMiles, Max Wind SpeedMPH, Mean Wind SpeedMPH, Max Gust SpeedMPH,PrecipitationIn, CloudCover, Events, WindDirDegrees
2011-10-1,94,78,61,60,56,48,84,54,24,29.94,29.91,29.86,10,10,8,10,2,16,0.00,0,,215
2011-10-2,87,76,64,60,56,50,78,54,30,29.99,29.94,29.90,10,10,10,10,3,16,0.00,0,,232
2011-10-3,83,73,63,58,54,48,84,59,33,29.95,29.92,29.89,10,10,10,12,3,16,0.00,0,,214
2011-10-4,72,67,62,58,56,53,84,73,61,29.97,29.94,29.91,10,10,3,13,4,17,0.03,6,Rain,197
2011-10-5,65,63,60,63,58,55,93,86,78,29.97,29.90,29.79,10,5,1,12,5,17,0.66,8,Rain,171
2011-10-6,70,61,51,51,47,43,49,44,39,29.95,29.90,29.88,10,10,10,13,7,18,0.00,0,,172
2011-10-7,74,64,53,52,48,42,83,62,41,30.08,30.02,29.96,10,10,10,10,3,14,0.00,0,,193
2011-10-8,83,68,53,49,44,38,77,49,20,30.04,29.99,29.93,10,10,10,8,2,12,0.00,0,,299
2011-10-9,87,71,54,51,45,39,72,46,19,29.96,29.92,29.84,10,10,10,10,3,14,0.00,0,,193
2011-10-10,81,69,56,57,52,47,72,54,36,29.94,29.89,29.86,10,10,8,10,2,14,0.00,0,,184
2011-10-11,83,70,57,58,55,51,87,62,36,29.90,29.86,29.81,10,7,3,8,2,21,0.00,1,,229
2011-10-12,105,84,62,59,53,43,78,45,12,29.88,29.82,29.75,10,10,7,8,2,16,0.00,0,,301
2011-10-13,99,81,63,58,51,41,72,44,15,29.83,29.80,29.75,10,10,10,12,2,15,0.00,0,,195
2011-10-14,85,74,62,62,58,51,78,58,37,29.90,29.84,29.80,10,10,9,9,2,12,0.00,2,,217
2011-10-15,77,71,65,59,58,57,84,69,54,29.96,29.92,29.88,10,8,5,12,3,16,0.00,3,,231
2011-10-16,81,70,59,60,57,54,87,68,48,30.02,29.99,29.95,10,8,3,9,2,13,0.00,3,,228
2011-10-17,79,69,58,59,57,53,84,66,48,30.05,30.00,29.97,10,8,3,8,2,12,0.00,1,,214
2011-10-18,78,70,62,60,59,57,90,74,57,30.05,29.99,29.93,10,4,2,9,1,20,0.00,6,,207
2011-10-19,74,68,61,58,57,56,90,74,57,29.95,29.92,29.86,10,7,3,8,3,13,0.00,6,,190
2011-10-20,74,68,62,56,55,54,78,66,53,30.05,29.98,29.93,10,8,4,9,3,15,0.00,5,,188
2011-10-21,76,70,63,56,55,54,78,64,50,30.08,30.04,29.99,9,5,2,10,2,14,0.00,4,,244
2011-10-22,84,69,54,59,56,52,93,68,43,30.04,29.98,29.91,8,4,0,8,1,21,0.00,2,Fog,190
2011-10-23,77,69,60,58,57,55,90,72,54,30.01,29.96,29.91,8,3,1,9,2,22,0.00,6,,190
2011-10-24,72,67,61,57,56,55,84,73,61,30.07,30.02,29.98,10,5,3,9,2,12,T,6,,217
2011-10-25,69,66,62,58,56,53,84,72,59,30.09,30.04,29.99,10,8,3,7,2,13,T,8,,291
2011-10-26,74,66,57,57,51,49,86,64,41,30.06,30.00,29.96,10,10,8,9,2,18,0.00,1,,283
2011-10-27,80,65,50,48,41,28,86,52,17,30.02,29.99,29.93,10,10,8,9,3,18,0.00,0,,263
2011-10-28,85,67,48,42,32,16,66,37,8,30.06,30.01,29.96,10,10,9,8,2,20,0.00,0,,271
2011-10-29,82,66,49,50,43,36,66,48,30,30.04,29.99,29.95,10,10,9,7,2,16,0.00,0,,221
2011-10-30,86,68,50,58,48,40,77,50,23,30.03,29.99,29.95,10,8,5,8,2,15,0.00,0,,196
2011-10-31,79,65,51,55,52,44,93,66,38,30.02,29.97,29.89,10,5,2,7,2,10,0.00,1,,205